EN

Hourly Weather Aalst

Today, 2 December, Wednesday

Time Temperature Precipitation Wind Pressure Humidity
00:00 +6°C° 0 mm 2 mps 763 mmHg 93%
01:00 +6°C° 0 mm 2 mps 763 mmHg 92%
02:00 +6°C° 0 mm 2 mps 763 mmHg 92%
03:00 +6°C° 0 mm 2 mps 763 mmHg 92%
04:00 +7°C° 0 mm 1 mps 763 mmHg 92%
05:00 +7°C° 0 mm 1 mps 762 mmHg 92%
06:00 +7°C° 0 mm 1 mps 763 mmHg 94%
07:00 +7°C° 0 mm 1 mps 762 mmHg 93%
08:00 +7°C° 0 mm 1 mps 762 mmHg 92%
09:00 +7°C° 0 mm 1 mps 762 mmHg 91%
10:00 +8°C° 0 mm 1 mps 761 mmHg 88%
11:00 +8°C° 0 mm 1 mps 761 mmHg 86%
12:00 +8°C° 0 mm 1 mps 760 mmHg 84%
13:00 +8°C° 0 mm 1 mps 760 mmHg 85%
14:00 +8°C° 0 mm 1 mps 759 mmHg 85%
15:00 +7°C° 0 mm 2 mps 759 mmHg 86%
16:00 +7°C° 0 mm 2 mps 758 mmHg 87%
17:00 +7°C° 0 mm 2 mps 758 mmHg 88%
18:00 +5°C° 0 mm 3 mps 757 mmHg 88%
19:00 +5°C° 0 mm 3 mps 757 mmHg 87%
20:00 +5°C° 0 mm 3 mps 757 mmHg 85%
21:00 +4°C° 0 mm 3 mps 756 mmHg 84%
22:00 +4°C° 0 mm 3 mps 756 mmHg 85%
23:00 +4°C° 0 mm 3 mps 755 mmHg 86%

Tomorrow, 3 December, Thursday

Time Temperature Precipitation Wind Pressure Humidity
00:00 +3°C° 0 mm 4 mps 754 mmHg 87%
01:00 +4°C° 0.2 mm 4 mps 753 mmHg 88%
02:00 +4°C° 0.2 mm 4 mps 753 mmHg 89%
03:00 +3°C° 0.2 mm 5 mps 752 mmHg 90%
04:00 +4°C° 0.1 mm 4 mps 751 mmHg 90%
05:00 +5°C° 0.1 mm 4 mps 751 mmHg 91%
06:00 +5°C° 0.1 mm 4 mps 750 mmHg 91%
07:00 +5°C° 0.1 mm 4 mps 749 mmHg 91%
08:00 +5°C° 0.1 mm 3 mps 749 mmHg 90%
09:00 +5°C° 0.1 mm 3 mps 748 mmHg 90%
10:00 +5°C° 0.1 mm 4 mps 747 mmHg 86%
11:00 +5°C° 0.1 mm 4 mps 746 mmHg 82%
12:00 +6°C° 0.1 mm 5 mps 745 mmHg 77%
13:00 +5°C° 0 mm 5 mps 744 mmHg 80%
14:00 +4°C° 0 mm 6 mps 743 mmHg 83%
15:00 +3°C° 0 mm 6 mps 742 mmHg 86%
16:00 +3°C° 0.2 mm 6 mps 741 mmHg 86%
17:00 +4°C° 0.2 mm 6 mps 740 mmHg 87%
18:00 +5°C° 0.2 mm 5 mps 739 mmHg 88%
19:00 +4°C° 0.2 mm 6 mps 739 mmHg 87%
20:00 +4°C° 0.2 mm 7 mps 738 mmHg 86%
21:00 +4°C° 0.2 mm 8 mps 737 mmHg 85%
22:00 +5°C° 0.2 mm 8 mps 736 mmHg 85%
23:00 +5°C° 0.2 mm 7 mps 735 mmHg 84%

Day after tomorrow, 4 December, Friday

Time Temperature Precipitation Wind Pressure Humidity
00:00 +5°C° 0.2 mm 7 mps 735 mmHg 84%
01:00 +5°C° 0.2 mm 7 mps 734 mmHg 85%
02:00 +5°C° 0.2 mm 6 mps 733 mmHg 87%
03:00 +6°C° 0.2 mm 5 mps 733 mmHg 88%
04:00 +5°C° 0.5 mm 6 mps 733 mmHg 87%
05:00 +5°C° 0.5 mm 7 mps 732 mmHg 86%
06:00 +5°C° 0.5 mm 8 mps 732 mmHg 84%
07:00 +5°C° 0.1 mm 7 mps 732 mmHg 81%
08:00 +5°C° 0.1 mm 7 mps 732 mmHg 78%
09:00 +5°C° 0.1 mm 7 mps 732 mmHg 75%
10:00 +5°C° 0 mm 8 mps 732 mmHg 73%
11:00 +5°C° 0 mm 10 mps 733 mmHg 71%
12:00 +4°C° 0 mm 11 mps 733 mmHg 69%
13:00 +5°C° 0.1 mm 10 mps 733 mmHg 72%
14:00 +3°C° 0.1 mm 9 mps 734 mmHg 76%
15:00 +2°C° 0.1 mm 8 mps 734 mmHg 80%
16:00 +3°C° 0 mm 7 mps 735 mmHg 82%
17:00 +3°C° 0 mm 6 mps 736 mmHg 84%
18:00 +3°C° 0 mm 5 mps 737 mmHg 86%
19:00 +3°C° 0 mm 4 mps 738 mmHg 87%
20:00 +3°C° 0 mm 4 mps 738 mmHg 88%
21:00 +3°C° 0 mm 3 mps 739 mmHg 89%
22:00 +2°C° 0 mm 3 mps 739 mmHg 90%
23:00 +2°C° 0 mm 3 mps 740 mmHg 91%

5 December, Saturday

Time Temperature Precipitation Wind Pressure Humidity
00:00 +1°C° 0 mm 3 mps 740 mmHg 92%
01:00 +1°C° 0 mm 3 mps 740 mmHg 91%
02:00 +1°C° 0 mm 3 mps 741 mmHg 91%
03:00 +1°C° 0 mm 3 mps 741 mmHg 90%
04:00 +1°C° 0 mm 3 mps 741 mmHg 90%
05:00 0°C° 0 mm 3 mps 742 mmHg 89%
06:00 0°C° 0 mm 3 mps 742 mmHg 89%
07:00 +1°C° 0 mm 2 mps 742 mmHg 87%
08:00 +2°C° 0 mm 2 mps 743 mmHg 86%
09:00 +2°C° 0 mm 2 mps 743 mmHg 84%
10:00 +3°C° 0 mm 2 mps 743 mmHg 80%
11:00 +4°C° 0 mm 2 mps 743 mmHg 76%
12:00 +5°C° 0 mm 2 mps 744 mmHg 72%
13:00 +5°C° 0 mm 2 mps 744 mmHg 74%
14:00 +5°C° 0 mm 1 mps 744 mmHg 76%
15:00 +5°C° 0 mm 1 mps 744 mmHg 78%
16:00 +5°C° 0 mm 1 mps 744 mmHg 81%
17:00 +4°C° 0 mm 1 mps 744 mmHg 83%
18:00 +3°C° 0 mm 1 mps 745 mmHg 86%
19:00 +3°C° 0 mm 1 mps 745 mmHg 87%
20:00 +2°C° 0 mm 2 mps 745 mmHg 88%
21:00 +1°C° 0 mm 2 mps 745 mmHg 90%
22:00 +1°C° 0 mm 2 mps 745 mmHg 90%
23:00 +1°C° 0 mm 2 mps 745 mmHg 90%

6 December, Sunday

Time Temperature Precipitation Wind Pressure Humidity
00:00 +1°C° 0 mm 2 mps 745 mmHg 90%
01:00 +1°C° 0 mm 2 mps 745 mmHg 89%
02:00 +2°C° 0 mm 1 mps 745 mmHg 89%
03:00 +1°C° 0 mm 1 mps 745 mmHg 89%
04:00 -1°C° 0 mm 2 mps 745 mmHg 88%
05:00 -1°C° 0 mm 2 mps 745 mmHg 88%
06:00 -1°C° 0 mm 2 mps 744 mmHg 87%
07:00 +1°C° 0 mm 2 mps 744 mmHg 85%
08:00 +1°C° 0 mm 2 mps 744 mmHg 84%
09:00 +1°C° 0 mm 2 mps 744 mmHg 82%
10:00 +1°C° 0 mm 3 mps 744 mmHg 78%
11:00 +3°C° 0 mm 3 mps 744 mmHg 74%
12:00 +4°C° 0 mm 4 mps 744 mmHg 70%
13:00 +3°C° 0 mm 3 mps 743 mmHg 73%
14:00 +3°C° 0 mm 3 mps 743 mmHg 76%
15:00 +2°C° 0 mm 3 mps 743 mmHg 79%
16:00 +2°C° 0 mm 3 mps 743 mmHg 82%
17:00 +2°C° 0 mm 3 mps 743 mmHg 84%
18:00 +2°C° 0 mm 3 mps 743 mmHg 87%
19:00 +2°C° 0 mm 3 mps 744 mmHg 90%
20:00 +2°C° 0 mm 3 mps 744 mmHg 92%
21:00 +3°C° 0 mm 2 mps 744 mmHg 95%
22:00 +3°C° 0.1 mm 2 mps 744 mmHg 93%
23:00 +3°C° 0.1 mm 2 mps 744 mmHg 92%

7 December, Monday

Time Temperature Precipitation Wind Pressure Humidity
00:00 +3°C° 0.1 mm 2 mps 744 mmHg 91%
01:00 +2°C° 0 mm 3 mps 745 mmHg 91%
02:00 +1°C° 0 mm 3 mps 745 mmHg 91%
03:00 0°C° 0 mm 4 mps 745 mmHg 91%
04:00 +1°C° 0 mm 3 mps 745 mmHg 90%
05:00 +1°C° 0 mm 3 mps 746 mmHg 88%
06:00 0°C° 0 mm 3 mps 746 mmHg 87%
07:00 +1°C° 0 mm 3 mps 746 mmHg 87%
08:00 +1°C° 0 mm 3 mps 746 mmHg 86%
09:00 0°C° 0 mm 4 mps 747 mmHg 86%
10:00 0°C° 0 mm 4 mps 747 mmHg 85%
11:00 +1°C° 0 mm 4 mps 747 mmHg 84%
12:00 +1°C° 0 mm 4 mps 747 mmHg 83%
13:00 +1°C° 0 mm 4 mps 748 mmHg 82%
14:00 +1°C° 0 mm 4 mps 748 mmHg 81%
15:00 +2°C° 0 mm 3 mps 749 mmHg 80%
16:00 +2°C° 0 mm 3 mps 749 mmHg 82%
17:00 +1°C° 0 mm 4 mps 749 mmHg 85%
18:00 0°C° 0 mm 4 mps 750 mmHg 87%
19:00 0°C° 0 mm 4 mps 750 mmHg 87%
20:00 0°C° 0 mm 4 mps 750 mmHg 87%
21:00 0°C° 0 mm 4 mps 751 mmHg 88%
22:00 0°C° 0 mm 4 mps 751 mmHg 88%
23:00 0°C° 0 mm 4 mps 751 mmHg 88%
Show more